Davenport, IA

1:13 PM CDT on October 21, 2017 (GMT -0500)
Davenport Municipal

Weather History for KDVN - August, 2012

Change the Weather History Date:

Tuesday, August 28, 2012

  Actual Average Record
Temperature  
Mean Temperature 74 °F 70 °F  
Max Temperature 88 °F 80 °F 95 °F (1955)
Min Temperature 59 °F 59 °F 51 °F (1965)
Degree Days  
Heating Degree Days 0 1  
Month to date heating degree days 13 2  
Since 1 June heating degree days 30 30  
Since 1 July heating degree days 13 6  
Cooling Degree Days 9 5  
Month to date cooling degree days 162 190  
Year to date cooling degree days 994 691  
Since 1 June cooling degree days 840 630  
Growing Degree Days 24 (Base 50)    
Moisture  
Dew Point 62 °F    
Average Humidity 69    
Maximum Humidity 97    
Minimum Humidity 40    
Precipitation  
Precipitation 0.00 in 0.11 in 1.49 in (1957)
Month to date precipitation 5.71 4.18  
Year to date precipitation 22.00 25.38  
Snow  
Snow 0.00 in - - ()
Month to date snowfall 0.0  
Since 1 June snowfall 0.0  
Since 1 July snowfall 0.0  
Snow Depth 0.00 in    
Sea Level Pressure  
Sea Level Pressure 30.08 in    
Wind  
Wind Speed 2 mph (NNW)    
Max Wind Speed 8 mph    
Max Gust Speed 13 mph    
Visibility 8 miles    
Events      
T = Trace of Precipitation, MM = Missing Value Source: NWS Daily Summary

Daily Weather History Graph

Daily Weather History Graph

Search for Another Location

Airport or City:

Trip Planner

Search our weather history database for the weather conditions in past years. The results will help you decide how hot, cold, wet, or windy it might be!

Date:

Astronomy

Aug. 28, 2012 Rise Set
Actual Time 6:24 AM CDT 7:41 PM CDT
Civil Twilight 5:56 AM CDT 8:09 PM CDT
Nautical Twilight 5:21 AM CDT 8:44 PM CDT
Astronomical Twilight 4:45 AM CDT 9:20 PM CDT
Moon 5:45 PM CDT (8/28) 3:12 AM CDT (8/28)
Length of Visible Light 14h 13m
Length of Day
13h 16m
Waxing Gibbous, 90% of the Moon is Illuminated
Aug 28
Waxing Gibbous
Aug 31
Full
Sep 8
Last Quarter
Sep 15
New
Sep 22
First Quarter

Hourly Weather History & Observations

Time (CDT) Temp. Heat Index Dew Point Humidity Pressure Visibility Wind Dir Wind Speed Gust Speed Precip Events Conditions
12:52 AM 66.0 °F - 63.0 °F 90% 30.09 in 9.0 mi WNW 4.6 mph - N/A   Mostly Cloudy
1:52 AM 64.0 °F - 62.1 °F 93% 30.09 in 8.0 mi WNW 4.6 mph - N/A   Clear
2:52 AM 63.0 °F - 61.0 °F 93% 30.09 in 9.0 mi WNW 3.5 mph - N/A   Clear
3:52 AM 63.0 °F - 61.0 °F 93% 30.10 in 7.0 mi NW 3.5 mph - N/A   Clear
4:52 AM 60.1 °F - 59.0 °F 96% 30.11 in 5.0 mi NNW 3.5 mph - N/A   Clear
5:52 AM 61.0 °F - 59.0 °F 93% 30.10 in 5.0 mi Calm Calm - N/A   Clear
6:35 AM 60.8 °F - 57.2 °F 88% 30.14 in 2.5 mi Calm Calm - N/A   Clear
6:45 AM 60.8 °F - 60.8 °F 100% 30.14 in 3.0 mi NNW 3.5 mph - N/A   Clear
6:52 AM 62.1 °F - 60.1 °F 93% 30.12 in 3.0 mi NNW 3.5 mph - N/A   Clear
7:52 AM 66.9 °F - 64.0 °F 90% 30.12 in 8.0 mi Calm Calm - N/A   Clear
8:52 AM 73.0 °F - 62.1 °F 68% 30.14 in 10.0 mi ENE 4.6 mph - N/A   Clear
10:52 AM 81.0 °F 81.9 °F 62.1 °F 52% 30.14 in 10.0 mi East 3.5 mph - N/A   Clear
12:52 PM 84.9 °F 84.4 °F 59.0 °F 41% 30.12 in 10.0 mi Calm Calm - N/A   Clear
1:52 PM 84.9 °F 84.8 °F 60.1 °F 43% 30.11 in 10.0 mi Calm Calm - N/A   Clear
2:52 PM 86.0 °F 86.1 °F 61.0 °F 43% 30.07 in 10.0 mi Calm Calm - N/A   Clear
3:52 PM 87.1 °F 87.0 °F 61.0 °F 41% 30.04 in 10.0 mi Calm Calm - N/A   Clear
4:52 PM 87.1 °F 88.3 °F 64.0 °F 46% 30.04 in 10.0 mi Calm Calm - N/A   Clear
5:52 PM 82.0 °F 84.1 °F 66.0 °F 58% 30.02 in 10.0 mi ESE 3.5 mph - N/A   Clear
6:52 PM 78.1 °F - 66.9 °F 68% 30.02 in 10.0 mi Calm Calm - N/A   Clear
7:52 PM 73.0 °F - 64.9 °F 76% 30.03 in 10.0 mi Calm Calm - N/A   Clear
8:52 PM 72.0 °F - 66.0 °F 81% 30.04 in 10.0 mi Calm Calm - N/A   Clear
9:52 PM 71.1 °F - 66.0 °F 84% 30.04 in 10.0 mi Calm Calm - N/A   Clear
10:52 PM 71.1 °F - 64.9 °F 81% 30.04 in 10.0 mi Calm Calm - N/A   Clear
11:52 PM 69.1 °F - 64.9 °F 87% 30.04 in 10.0 mi SE 3.5 mph - N/A   Clear